RADUGA 30 [-]

Last updated on July 6, 2021, 3:35 p.m. UTC

1 22836U 93062A   21186.94641093 -.00000091  00000-0  00000-0 0  9996
2 22836  14.7796   1.1878 0003428  16.6630 319.7143  1.00285575 27876
UTC
Height (km)
Latitude
Longitude
Inclination
Orbital Period
UTC large
Height (km)
Speed (km/s)
/
Latitude / Longitude
Inclination (degrees)
Orbital Period (minutes)
Azimuth
Elevation
Range (km)
Doppler Factor
iOS Compass Heading
iOS Angle